Timestamp[UTC];2m Lufttemperatur [degC] (tas);Stations-Luftdruck [Pa] (ps);relative Luftfeuchtigkeit [%] (hurs);spezifische Luftfeuchtigkeit [kg/kg] (huss);Niederschlagsmenge [mm] (pr);Windgeschwindigkeit in 2m [m/s] (sfcWind);Windrichtung [deg];maximale Windgeschwindigkeit [m/s] (wsgsmax);u-Windkomponente [m/s] (uas);v-Windkomponente [m/s] (vas);Sonneneinstrahlung [W/m2];Blitzrate [n];Blitzentfernung [km];Bodenfeuchte in 5cm Tiefe [vol%];Bodenfeuchte in 15cm Tiefe [vol%];Bodenfeuchte in 30cm Tiefe [vol%];Bodenfeuchte in 60cm Tiefe [vol%];Bodentemperatur in 5cm Tiefe [degC];Bodentemperatur in 15cm Tiefe [degC];Bodentemperatur in 30cm Tiefe [degC];Bodentemperatur in 60cm Tiefe [degC];Matrixpotential in 30cm Tiefe [kPa];Bodenfeuchte aus CRNS [vol%] (mrso);Neutronen Anzahl [N/h]
2021-08-01 00:00:00;13,0;100103;96;0,009;0,0;0,2;318;0,5;0,17;-0,15;0;0;0;19,1;12,0;17,7;19,8;16,2;16,9;17,2;16,7;-52,8;26,2;1449
2021-08-01 01:00:00;12,6;100102;96;0,0088;0,02;0,2;298;0,5;0,12;-0,2;0;0;0;19,1;12,1;17,7;19,8;16,0;16,7;17,1;16,6;-52,2;26,3;1380
2021-08-01 02:00:00;12,5;100062;96;0,0087;0,04;0,2;279;0,5;0,04;-0,21;0;0;0;19,1;12,1;17,7;19,8;15,8;16,5;17,1;16,6;-51,5;26,4;1442
2021-08-01 03:00:00;12,0;100075;97;0,0085;0,02;0,2;289;0,4;0,07;-0,19;0;0;0;19,8;12,1;17,7;19,8;15,7;16,4;17,0;16,6;-51,1;26,3;1414
2021-08-01 04:00:00;12,5;100070;96;0,0087;0,06;0,3;285;0,8;0,07;-0,27;9;0;0;20,6;12,1;17,7;19,8;15,6;16,3;16,9;16,6;-50,6;26,1;1484
2021-08-01 05:00:00;13,6;100052;98;0,0095;0,0;0,3;279;0,8;0,05;-0,3;45;0;0;20,6;12,2;17,7;19,8;15,6;16,2;16,9;16,6;-50,2;26,1;1465
2021-08-01 06:00:00;14,4;100023;100;0,0103;0,0;0,4;281;1,2;0,07;-0,36;141;0;0;20,7;12,2;17,7;19,8;15,7;16,1;16,8;16,6;-49,9;25,9;1495
2021-08-01 07:00:00;15,8;100048;100;0,0111;0,0;0,5;282;1,3;0,12;-0,48;230;0;0;20,7;12,2;17,7;19,8;15,9;16,1;16,8;16,6;-49,5;25,6;1442
2021-08-01 08:00:00;18,1;100030;94;0,0122;0,0;0,7;277;1,9;0,08;-0,68;489;0;0;20,7;12,2;17,7;19,8;16,2;16,2;16,7;16,6;-49,4;25,4;1516
2021-08-01 09:00:00;18,6;100050;86;0,0114;0,0;0,6;287;2,5;0,16;-0,55;417;0;0;20,7;12,2;17,7;19,8;16,8;16,4;16,7;16,6;-49,8;25,3;1450
2021-08-01 10:00:00;18,4;100072;84;0,0111;0,0;0,8;266;2,2;-0,05;-0,78;397;0;0;20,2;12,2;17,6;19,8;17,3;16,6;16,7;16,6;-50,5;25,3;1529
2021-08-01 11:00:00;17,5;100105;84;0,0105;0,0;0,7;279;2,3;0,1;-0,67;233;0;0;20,6;12,2;17,6;19,8;17,5;16,9;16,7;16,6;-51,0;25,1;1475
2021-08-01 12:00:00;18,7;100098;82;0,011;0,0;0,6;276;2,3;0,09;-0,58;535;0;0;20,1;12,2;17,6;19,8;17,8;17,1;16,8;16,5;-51,4;25,0;1418
2021-08-01 13:00:00;15,8;100128;84;0,0094;0,9;1,6;337;3,2;1,45;-0,62;118;0;0;19,7;12,2;17,6;19,8;18,0;17,3;16,8;16,5;-51,8;25,0;1462
2021-08-01 14:00:00;17,7;100092;86;0,011;0,0;0,8;325;2,6;0,64;-0,34;556;0;0;20,5;12,2;17,6;19,8;18,0;17,4;16,9;16,5;-51,6;24,8;1456
2021-08-01 15:00:00;19,4;100092;80;0,0113;0,0;0,5;316;1,9;0,37;-0,34;330;0;0;20,5;12,2;17,6;19,8;18,2;17,5;16,9;16,5;-51,6;24,7;1447
2021-08-01 16:00:00;16,8;100120;87;0,0104;0,53;2,1;344;5,0;1,99;-0,57;123;0;0;20,6;12,2;17,6;19,8;18,3;17,6;17,0;16,5;-51,4;24,5;1449
2021-08-01 17:00:00;16,7;100140;88;0,0105;0,0;1,6;342;3,4;1,48;-0,46;123;0;0;20,6;12,2;17,6;19,8;18,1;17,7;17,0;16,5;-50,9;24,7;1535
2021-08-01 18:00:00;16,9;100178;86;0,0104;0,0;1,6;339;3,4;1,53;-0,56;68;0;0;20,7;12,2;17,6;19,8;18,0;17,7;17,1;16,5;-50,5;24,6;1499
2021-08-01 19:00:00;16,2;100250;87;0,01;0,0;1,0;329;2,0;0,86;-0,47;10;0;0;20,7;12,2;17,6;19,8;17,8;17,6;17,1;16,5;-50,2;24,7;1425
2021-08-01 20:00:00;15,4;100312;85;0,0093;0,0;1,4;333;2,4;1,23;-0,62;0;0;0;20,7;12,2;17,6;19,8;17,5;17,5;17,2;16,5;-50,0;24,8;1448
2021-08-01 21:00:00;14,4;100350;87;0,0088;0,0;1,1;332;2,0;0,95;-0,48;0;0;0;20,8;12,2;17,6;19,8;17,3;17,4;17,2;16,5;-49,6;25,0;1432
2021-08-01 22:00:00;13,2;100395;89;0,0084;0,0;0,6;314;1,4;0,4;-0,36;0;0;0;20,8;12,2;17,6;19,8;17,0;17,3;17,2;16,5;-49,4;24,9;1470
2021-08-01 23:00:00;12,1;100395;92;0,008;0,0;0,3;281;0,6;0,06;-0,29;0;0;0;20,8;12,2;17,6;19,8;16,6;17,1;17,1;16,5;-49,2;25,2;1487
2021-08-02 00:00:00;11,3;100408;93;0,0078;0,0;0,2;292;0,4;0,09;-0,22;0;0;0;20,8;12,3;17,6;19,7;16,3;16,9;17,1;16,5;-49,0;25,2;1436
2021-08-02 01:00:00;10,9;100413;94;0,0076;0,02;0,2;301;0,5;0,11;-0,19;0;0;0;20,8;12,3;17,6;19,7;15,9;16,7;17,1;16,5;-48,8;25,0;1403
2021-08-02 02:00:00;10,7;100428;94;0,0075;0,04;0,3;292;0,8;0,11;-0,27;0;0;0;20,8;12,3;17,6;19,7;15,6;16,5;17,0;16,5;-48,6;25,0;1466
2021-08-02 03:00:00;10,6;100435;94;0,0075;0,04;0,3;280;0,7;0,06;-0,32;0;0;0;20,8;12,3;17,6;19,7;15,4;16,3;16,9;16,5;-48,4;24,9;1444
2021-08-02 04:00:00;10,8;100462;96;0,0077;0,02;0,2;290;0,7;0,08;-0,23;16;0;0;20,8;12,3;17,6;19,7;15,2;16,1;16,9;16,5;-48,2;25,0;1402
2021-08-02 05:00:00;12,1;100480;99;0,0087;0,0;0,3;321;0,7;0,26;-0,2;73;0;0;20,8;12,3;17,6;19,7;15,1;16,0;16,8;16,5;-48,1;25,0;1434
2021-08-02 06:00:00;13,2;100495;99;0,0094;0,0;0,4;304;0,8;0,21;-0,31;175;0;0;20,8;12,3;17,6;19,7;15,2;15,9;16,7;16,5;-47,9;25,0;1410
2021-08-02 07:00:00;14,8;100535;92;0,0097;0,0;0,6;314;1,5;0,4;-0,38;216;0;0;20,8;12,3;17,6;19,7;15,4;15,8;16,6;16,5;-47,7;25,3;1372
2021-08-02 08:00:00;15,9;100548;87;0,0097;0,0;0,8;334;2,2;0,74;-0,34;328;0;0;20,8;12,3;17,6;19,7;15,8;15,9;16,6;16,5;-47,7;25,3;1395
2021-08-02 09:00:00;16,5;100563;77;0,009;0,0;0,8;330;2,3;0,69;-0,39;220;0;0;20,7;12,3;17,6;19,7;16,1;16,0;16,5;16,5;-47,8;25,3;1428
2021-08-02 10:00:00;16,6;100578;74;0,0086;0,0;0,9;335;2,7;0,81;-0,36;244;0;0;20,6;12,3;17,6;19,7;16,4;16,2;16,5;16,5;-48,2;25,3;1379
2021-08-02 11:00:00;19,0;100545;67;0,0091;0,0;0,7;296;2,5;0,33;-0,51;713;0;0;19,3;12,2;17,6;19,7;16,8;16,3;16,5;16,4;-48,8;25,3;1434
2021-08-02 12:00:00;20,5;100542;59;0,0088;0,0;1,0;317;3,5;0,76;-0,44;783;0;0;18,7;12,1;17,5;19,7;17,5;16,6;16,5;16,4;-50,4;25,5;1455
2021-08-02 13:00:00;19,7;100550;57;0,0081;0,0;1,5;339;4,7;1,4;-0,5;589;0;0;18,5;12,1;17,5;19,7;18,1;16,9;16,6;16,4;-52,0;25,5;1438
2021-08-02 14:00:00;19,7;100532;52;0,0075;0,0;2,0;340;4,7;1,89;-0,66;443;0;0;18,3;12,0;17,4;19,7;18,4;17,3;16,6;16,4;-53,4;25,4;1450
2021-08-02 15:00:00;18,8;100538;56;0,0075;0,0;1,3;336;2,8;1,16;-0,5;129;0;0;18,2;12,0;17,4;19,7;18,4;17,5;16,7;16,4;-53,9;25,5;1419
2021-08-02 16:00:00;17,9;100562;63;0,0081;0,0;1,1;332;2,3;0,96;-0,48;28;0;0;18,2;12,0;17,4;19,7;18,2;17,6;16,8;16,4;-53,6;25,6;1427
2021-08-02 17:00:00;17,3;100563;68;0,0084;0,0;1,1;329;2,0;0,95;-0,55;40;0;0;18,2;12,0;17,4;19,7;17,9;17,6;16,9;16,4;-53,0;25,4;1497
2021-08-02 18:00:00;16,4;100585;77;0,0089;0,78;0,7;319;1,8;0,58;-0,42;12;0;0;18,2;12,0;17,4;19,7;17,7;17,5;16,9;16,4;-52,5;25,5;1372
2021-08-02 19:00:00;14,8;100625;88;0,0091;0,0;0,3;294;0,6;0,14;-0,31;4;0;0;18,2;12,0;17,4;19,7;17,4;17,4;17,0;16,4;-52,0;25,4;1435
2021-08-02 20:00:00;14,2;100695;89;0,0089;0,0;0,4;302;0,7;0,21;-0,32;0;0;0;18,2;12,0;17,4;19,7;17,2;17,3;17,0;16,4;-51,6;25,1;1386
2021-08-02 21:00:00;13,8;100700;89;0,0087;0,0;0,4;308;0,6;0,24;-0,3;0;0;0;18,2;12,0;17,4;19,7;16,9;17,2;17,0;16,4;-51,3;25,1;1404
2021-08-02 22:00:00;12,9;100700;90;0,0083;0,02;0,2;296;0,3;0,11;-0,21;0;0;0;18,2;12,0;17,4;19,6;16,7;17,0;17,0;16,4;-51,0;25,0;1422
2021-08-02 23:00:00;12,0;100688;91;0,0079;0,0;0,2;284;0,3;0,05;-0,22;0;0;0;18,2;12,0;17,4;19,6;16,4;16,9;16,9;16,4;-50,7;25,0;1387
2021-08-03 00:00:00;11,5;100678;94;0,0078;0,02;0,2;277;0,3;-0,02;-0,2;0;0;0;18,2;12,0;17,4;19,6;16,0;16,7;16,9;16,4;-50,4;25,2;1402
2021-08-03 01:00:00;11,0;100667;94;0,0076;0,02;0,2;274;0,4;0,03;-0,22;0;0;0;18,2;12,0;17,4;19,6;15,7;16,5;16,9;16,4;-50,2;25,2;1422
2021-08-03 02:00:00;10,7;100652;95;0,0076;0,02;0,2;274;0,3;0,01;-0,17;0;0;0;18,2;12,0;17,4;19,6;15,4;16,3;16,8;16,4;-50,0;25,1;1417
2021-08-03 03:00:00;10,3;100648;95;0,0074;0,02;0,3;314;0,4;0,18;-0,17;0;0;0;18,2;12,0;17,4;19,6;15,2;16,1;16,7;16,4;-49,8;25,1;1386
2021-08-03 04:00:00;10,2;100628;96;0,0074;0,02;0,2;307;0,3;0,1;-0,12;21;0;0;18,2;12,0;17,4;19,6;14,9;15,9;16,7;16,4;-49,7;25,2;1444
2021-08-03 05:00:00;11,3;100618;99;0,0082;0,02;0,2;284;0,3;0,09;0,04;96;0;0;18,2;12,0;17,4;19,6;14,8;15,7;16,6;16,4;-49,5;25,2;1400
2021-08-03 06:00:00;13,5;100607;99;0,0095;0,0;0,6;107;1,5;-0,17;0,54;189;0;0;18,2;12,0;17,4;19,6;14,8;15,6;16,5;16,4;-49,4;25,2;1428
2021-08-03 07:00:00;14,8;100586;92;0,0095;0,0;0,9;90;2,2;0,01;0,89;269;0;0;18,2;12,0;17,4;19,6;15,1;15,6;16,4;16,4;-49,3;24,7;1458
2021-08-03 08:00:00;16,1;100587;85;0,0096;0,0;0,9;115;2,1;-0,4;0,83;328;0;0;18,2;12,0;17,4;19,6;15,5;15,6;16,4;16,4;-49,4;24,7;1411
2021-08-03 09:00:00;17,5;100555;75;0,0093;0,0;1,3;105;2,8;-0,32;1,24;428;0;0;18,1;12,0;17,4;19,6;16,0;15,8;16,3;16,3;-49,9;24,4;1449
2021-08-03 10:00:00;17,6;100570;68;0,0086;0,0;0,8;126;2,4;-0,44;0,64;247;0;0;17,9;11,9;17,4;19,6;16,4;16,0;16,3;16,3;-50,9;24,5;1365
2021-08-03 11:00:00;17,9;100550;67;0,0085;0,0;0,8;128;2,4;-0,46;0,63;306;0;0;17,8;11,9;17,4;19,6;16,7;16,2;16,3;16,3;-51,7;24,5;1382
2021-08-03 12:00:00;18,5;100520;60;0,0079;0,0;1,1;113;2,6;-0,38;0,99;292;0;0;17,7;11,9;17,3;19,6;16,8;16,4;16,4;16,3;-52,8;24,3;1461
2021-08-03 13:00:00;18,8;100500;59;0,008;0,0;0,8;118;2,4;-0,26;0,72;350;0;0;17,5;11,8;17,3;19,6;17,0;16,5;16,4;16,3;-53,9;24,1;1492
2021-08-03 14:00:00;19,1;100475;55;0,0075;0,0;1,1;80;2,5;0,2;1,08;220;0;0;17,4;11,8;17,3;19,6;17,2;16,6;16,4;16,3;-72,1;24,2;1448
2021-08-03 15:00:00;18,9;100465;56;0,0076;0,0;0,8;52;2,1;0,48;0,63;165;0;0;17,3;11,8;17,3;19,6;17,2;16,8;16,5;16,3;-75,6;24,1;1386
2021-08-03 16:00:00;18,7;100463;58;0,0077;0,0;0,9;42;1,9;0,58;0,62;117;0;0;17,2;11,7;17,3;19,6;17,2;16,8;16,5;16,2;-75,4;23,9;1454
2021-08-03 17:00:00;18,5;100455;63;0,0083;0,0;0,6;258;1,6;0,58;-0,09;97;0;0;17,2;11,7;17,2;19,6;17,2;16,9;16,5;16,2;-76,6;23,9;1486
2021-08-03 18:00:00;17,9;100488;68;0,0086;0,0;0,3;338;0,7;0,24;-0,07;34;0;0;17,1;11,7;17,2;19,6;17,2;16,9;16,6;16,2;-78,5;23,8;1527
2021-08-03 19:00:00;16,8;100508;74;0,0088;0,0;0,2;317;0,5;0,17;-0,16;4;0;0;17,1;11,7;17,2;19,6;17,0;16,9;16,6;16,2;-61,0;23,8;1471
2021-08-03 20:00:00;15,6;100538;81;0,0089;0,0;0,3;321;0,5;0,2;-0,17;0;0;0;17,1;11,7;17,3;19,6;16,8;16,8;16,6;16,2;-54,3;23,8;1508
2021-08-03 21:00:00;14,9;100560;86;0,009;0,0;0,2;316;0,4;0,16;-0,16;0;0;0;17,1;11,7;17,3;19,6;16,6;16,7;16,6;16,2;-53,9;23,9;1373
2021-08-03 22:00:00;14,6;100568;86;0,0089;0,0;0,3;328;0,6;0,29;-0,18;0;0;0;17,1;11,7;17,3;19,5;16,4;16,7;16,6;16,2;-53,5;24,0;1438
2021-08-03 23:00:00;14,4;100570;86;0,0088;0,0;0,4;237;1,2;0,4;-0,01;0;0;0;17,1;11,7;17,3;19,5;16,2;16,5;16,6;16,2;-53,2;24,0;1449
2021-08-04 00:00:00;14,4;100575;86;0,0088;0,0;0,8;24;1,6;0,68;0,31;0;0;0;17,1;11,7;17,3;19,5;16,1;16,4;16,6;16,2;-53,0;23,6;1491
2021-08-04 01:00:00;14,2;100593;87;0,0088;0,0;0,5;238;1,1;0,45;0,02;0;0;0;17,1;11,7;17,3;19,5;16,0;16,3;16,6;16,2;-52,7;23,5;1412
2021-08-04 02:00:00;13,9;100565;88;0,0087;0,0;0,4;266;1,1;0,41;0,03;0;0;0;17,1;11,8;17,3;19,5;15,9;16,3;16,5;16,2;-52,5;23,5;1450
2021-08-04 03:00:00;13,5;100570;90;0,0087;0,0;0,4;260;0,8;0,35;-0,02;0;0;0;17,1;11,7;17,3;19,5;15,8;16,2;16,5;16,2;-52,3;23,5;1452
2021-08-04 04:00:00;13,6;100568;90;0,0087;0,0;0,8;42;1,5;0,55;0,52;8;0;0;17,1;11,7;17,3;19,5;15,7;16,1;16,5;16,2;-52,1;23,3;1430
2021-08-04 05:00:00;13,6;100585;92;0,0088;0,0;0,5;114;1,2;0,45;0,24;64;0;0;17,1;11,8;17,3;19,5;15,6;16,0;16,4;16,2;-52,0;23,3;1446
2021-08-04 06:00:00;15,2;100602;89;0,0095;0,0;1,1;66;2,3;0,45;1,02;151;0;0;17,1;11,8;17,3;19,5;15,7;16,0;16,4;16,2;-51,8;23,4;1430
2021-08-04 07:00:00;16,2;100622;84;0,0096;0,0;1,1;82;2,6;0,14;1,04;172;0;0;17,1;11,7;17,3;19,5;15,8;16,0;16,4;16,2;-52,0;23,7;1415
2021-08-04 08:00:00;17,4;100620;80;0,0099;0,0;1,3;70;2,6;0,43;1,22;330;0;0;17,0;11,7;17,2;19,5;16,1;16,0;16,4;16,2;-52,4;23,9;1372
2021-08-04 09:00:00;18,6;100617;74;0,0098;0,0;1,3;64;3,2;0,58;1,22;402;0;0;16,8;11,7;17,2;19,5;16,6;16,1;16,3;16,2;-53,6;24,1;1393
2021-08-04 10:00:00;20,0;100592;65;0,0095;0,0;1,7;68;3,8;0,62;1,57;594;0;0;16,6;11,6;17,2;19,5;17,2;16,4;16,3;16,2;-70,0;23,9;1372
2021-08-04 11:00:00;20,8;100562;61;0,0093;0,0;1,9;70;4,1;0,61;1,76;595;0;0;16,4;11,6;17,1;19,5;17,8;16,7;16,4;16,2;-66,6;23,8;1501
2021-08-04 12:00:00;21,7;100527;58;0,0093;0,0;2,1;69;4,3;0,73;1,95;628;0;0;16,2;11,5;17,1;19,5;18,4;17,0;16,4;16,1;-81,6;23,7;1485
2021-08-04 13:00:00;21,8;100502;55;0,009;0,0;1,8;80;4,0;0,34;1,73;504;0;0;16,0;11,4;17,0;19,5;18,9;17,3;16,5;16,1;-91,9;23,6;1456
2021-08-04 14:00:00;21,9;100488;54;0,0088;0,0;1,7;76;3,9;0,44;1,62;424;0;0;15,8;11,4;17,0;19,5;19,0;17,6;16,6;16,1;-94,8;23,5;1436
2021-08-04 15:00:00;22,3;100442;51;0,0086;0,0;1,7;70;3,8;0,55;1,58;424;0;0;15,6;11,3;16,9;19,5;19,0;17,8;16,7;16,1;-97,4;23,4;1451
2021-08-04 16:00:00;21,9;100410;52;0,0084;0,0;1,3;63;3,1;0,58;1,18;295;0;0;15,5;11,3;16,9;19,5;18,9;17,9;16,8;16,1;-98,6;23,2;1472
2021-08-04 17:00:00;22,0;100377;51;0,0084;0,0;1,6;75;3,1;0,42;1,58;196;0;0;15,4;11,3;16,9;19,4;18,8;18,0;16,8;16,1;-99,3;23,2;1451
2021-08-04 18:00:00;18,4;100428;72;0,0094;0,0;0,9;161;2,3;-0,72;0,34;31;0;0;15,4;11,3;16,9;19,4;18,6;18,0;16,9;16,1;-98,6;23,2;1396
2021-08-04 19:00:00;16,8;100440;82;0,0097;0,0;0,7;51;1,5;0,26;0,41;4;0;0;15,4;11,3;16,9;19,4;18,2;17,9;17,0;16,1;-97,2;23,0;1416
2021-08-04 20:00:00;16,6;100448;83;0,0097;0,0;0,5;114;1,0;0,36;0,25;0;0;0;15,4;11,3;16,9;19,4;18,0;17,8;17,0;16,1;-95,8;22,9;1436
2021-08-04 21:00:00;16,1;100478;87;0,0099;0,0;0,3;239;0,6;0,26;-0,16;0;0;0;15,4;11,3;16,9;19,4;17,7;17,6;17,0;16,1;-94,9;22,6;1442
2021-08-04 22:00:00;15,4;100465;89;0,0096;0,0;0,4;174;0,8;0,29;0,05;0;0;0;15,4;11,3;16,9;19,4;17,4;17,5;17,0;16,2;-94,0;22,7;1459
2021-08-04 23:00:00;14,8;100420;90;0,0094;0,0;0,6;258;1,0;0,4;0,03;0;0;0;15,4;11,3;16,9;19,4;17,2;17,3;17,0;16,2;-93,4;22,5;1504
2021-08-05 00:00:00;13,8;100405;92;0,009;0,0;0,3;330;0,5;0,22;-0,12;0;0;0;15,4;11,3;16,9;19,4;16,8;17,2;17,0;16,2;-92,8;22,6;1511
2021-08-05 01:00:00;13,9;100357;94;0,0093;0,0;0,2;242;0,5;0,21;-0,02;0;0;0;15,4;11,3;16,9;19,4;16,6;17,0;17,0;16,2;-92,2;22,5;1464
2021-08-05 02:00:00;14,3;100308;94;0,0096;0,0;0,3;105;0,8;0,32;0,11;0;0;0;15,4;11,3;16,9;19,4;16,4;16,8;16,9;16,2;-91,8;22,4;1525
2021-08-05 03:00:00;14,5;100280;94;0,0097;0,0;0,4;42;0,9;0,26;0,26;0;0;0;15,4;11,3;16,9;19,4;16,3;16,7;16,9;16,2;-91,3;22,3;1544
2021-08-05 04:00:00;14,4;100255;94;0,0096;0,0;0,3;181;0,8;0,29;0,01;4;0;0;15,4;11,3;16,9;19,4;16,2;16,6;16,8;16,2;-91,1;22,3;1438
2021-08-05 05:00:00;14,4;100227;95;0,0097;0,02;0,3;116;0,7;0,22;0,09;40;0;0;15,4;11,3;16,9;19,4;16,2;16,5;16,8;16,2;-90,7;22,3;1489
2021-08-05 06:00:00;15,3;100228;96;0,0104;0,0;0,3;127;0,9;-0,16;0,2;125;0;0;15,4;11,3;16,9;19,4;16,2;16,5;16,8;16,2;-90,3;22,1;1532
2021-08-05 07:00:00;16,8;100240;90;0,0107;0,0;0,4;104;1,2;-0,12;0,38;212;0;0;15,3;11,3;16,9;19,4;16,4;16,4;16,7;16,2;-90,1;21,9;1504
2021-08-05 08:00:00;19,4;100202;81;0,0114;0,0;0,5;130;1,7;-0,12;0,31;399;0;0;15,3;11,2;16,8;19,4;16,7;16,5;16,7;16,2;-91,6;21,8;1501
2021-08-05 09:00:00;20,5;100167;73;0,011;0,0;0,6;69;1,9;0,13;0,53;498;0;0;15,2;11,2;16,8;19,4;17,2;16,6;16,6;16,2;-94,8;21,6;1411
2021-08-05 10:00:00;21,9;100150;66;0,0108;0,0;0,6;132;2,0;-0,28;0,45;494;0;0;15,0;11,1;16,8;19,4;17,7;16,8;16,6;16,2;-98,7;21,5;1491
2021-08-05 11:00:00;23,0;100085;61;0,0107;0,0;0,7;134;2,2;-0,43;0,47;680;0;0;14,8;11,1;16,7;19,4;18,4;17,1;16,7;16,2;-102,6;21,3;1504
2021-08-05 12:00:00;24,0;100025;55;0,0101;0,0;0,7;201;2,6;0,06;0,23;729;0;0;14,6;11,0;16,6;19,4;19,0;17,5;16,7;16,2;-107,1;21,3;1552
2021-08-05 13:00:00;23,5;99975;56;0,0101;0,0;0,4;201;1,5;-0,0;-0,05;302;0;0;14,5;10,9;16,5;19,3;19,4;17,8;16,8;16,2;-110,4;21,4;1536
2021-08-05 14:00:00;20,8;99932;70;0,0108;0,29;0,4;304;1,1;0,25;-0,27;253;0;0;14,4;10,9;16,5;19,3;19,4;18,1;16,9;16,2;-111,0;21,4;1524
2021-08-05 15:00:00;22,4;99870;65;0,011;0,0;0,3;276;0,8;0,05;-0,2;280;0;0;14,4;10,9;16,5;19,3;19,3;18,2;17,0;16,2;-110,6;21,6;1517
2021-08-05 16:00:00;22,5;99808;62;0,0105;0,0;0,2;308;0,6;0,13;-0,2;270;0;0;14,3;10,9;16,5;19,3;19,2;18,3;17,1;16,2;-110,4;21,7;1520
2021-08-05 17:00:00;21,7;99790;58;0,0095;0,0;0,2;329;0,4;0,14;-0,09;45;0;0;14,3;10,9;16,5;19,3;19,0;18,3;17,1;16,2;-110,3;21,4;1581
2021-08-05 18:00:00;19,8;99783;66;0,0095;0,0;0,2;329;0,3;0,13;-0,08;43;0;0;14,3;10,9;16,5;19,3;18,7;18,2;17,2;16,2;-109,2;21,5;1567
2021-08-05 19:00:00;18,8;99785;70;0,0095;0,0;0,2;181;0,5;0,11;0,08;8;0;0;14,3;10,9;16,5;19,3;18,4;18,1;17,2;16,2;-108,2;21,6;1581
2021-08-05 20:00:00;17,9;99770;75;0,0096;0,0;0,4;127;1,4;-0,22;0,3;0;0;0;14,3;10,9;16,5;19,3;18,1;18,0;17,3;16,2;-107,4;21,9;1598
2021-08-05 21:00:00;17,0;99735;80;0,0097;0,0;0,5;122;1,6;-0,22;0,4;0;0;0;14,3;10,9;16,5;19,3;17,7;17,8;17,3;16,2;-106,7;22,1;1583
2021-08-05 22:00:00;16,0;99682;84;0,0096;0,0;0,2;186;0,7;-0,13;0,05;0;0;0;14,3;10,9;16,5;19,3;17,5;17,7;17,3;16,2;-106,3;21,9;1622
2021-08-05 23:00:00;15,6;99622;86;0,0096;0,0;0,4;145;1,4;-0,3;0,24;0;0;0;14,3;10,9;16,4;19,3;17,2;17,5;17,2;16,2;-105,7;22,0;1613
2021-08-06 00:00:00;15,4;99565;86;0,0095;0,0;0,5;134;1,3;-0,34;0,35;0;0;0;14,2;10,9;16,4;19,3;17,0;17,3;17,2;16,2;-105,2;21,9;1582
2021-08-06 01:00:00;15,2;99530;88;0,0095;0,0;0,5;146;1,4;-0,38;0,26;0;0;0;14,2;10,9;16,5;19,3;16,9;17,2;17,2;16,3;-105,0;22,1;1562
2021-08-06 02:00:00;15,4;99490;88;0,0097;0,0;0,3;201;0,8;-0,22;-0,05;0;0;0;14,2;10,9;16,5;19,3;16,7;17,1;17,1;16,3;-104,6;22,2;1521
2021-08-06 03:00:00;15,4;99452;88;0,0097;0,0;0,5;142;1,6;-0,36;0,27;0;0;0;14,2;10,9;16,5;19,3;16,7;17,0;17,1;16,3;-104,3;22,2;1603
2021-08-06 04:00:00;15,0;99428;90;0,0096;0,0;0,3;163;1,0;-0,22;0,11;13;0;0;14,2;10,9;16,5;19,3;16,6;16,9;17,0;16,3;-104,1;22,3;1658
2021-08-06 05:00:00;15,9;99410;90;0,0102;0,0;0,3;196;0,8;-0,24;-0,08;48;0;0;14,2;10,9;16,5;19,3;16,5;16,8;17,0;16,3;-103,9;22,2;1543
2021-08-06 06:00:00;17,1;99410;88;0,0109;0,21;0,4;227;1,4;-0,27;-0,28;90;0;0;14,2;10,9;16,5;19,3;16,6;16,8;17,0;16,3;-104,1;22,4;1579
2021-08-06 07:00:00;17,2;99425;92;0,0113;0,0;0,4;240;1,4;-0,18;-0,32;138;0;0;14,2;10,9;16,4;19,3;16,8;16,8;16,9;16,3;-104,0;22,4;1461
2021-08-06 08:00:00;17,7;99438;90;0,0115;0,17;0,5;240;1,9;-0,24;-0,43;110;0;0;14,2;10,9;16,4;19,3;16,9;16,8;16,9;16,3;-104,0;22,3;1491
2021-08-06 09:00:00;18,4;99420;90;0,012;0,0;0,5;239;2,0;-0,27;-0,43;254;0;0;14,2;10,9;16,4;19,2;17,1;16,9;16,9;16,3;-104,1;22,3;1581
2021-08-06 10:00:00;20,8;99425;79;0,0122;0,0;0,6;255;2,1;-0,14;-0,57;506;0;0;14,1;10,9;16,4;19,2;17,4;16,9;16,8;16,3;-106,9;22,4;1534
2021-08-06 11:00:00;22,1;99427;69;0,0116;0,0;0,7;264;2,3;-0,07;-0,69;639;0;0;14,0;10,8;16,3;19,2;18,0;17,1;16,8;16,3;-111,2;22,4;1594
2021-08-06 12:00:00;20,6;99450;74;0,0112;0,2;0,6;254;2,1;-0,15;-0,56;334;1;6;14,0;10,8;16,3;19,2;18,4;17,4;16,9;16,3;-113,1;22,4;1544
2021-08-06 13:00:00;21,6;99438;75;0,0121;0,0;0,6;238;2,6;-0,33;-0,55;579;0;0;13,9;10,7;16,2;19,2;18,8;17,6;16,9;16,3;-114,6;22,5;1523
2021-08-06 14:00:00;21,1;99470;70;0,011;0,0;0,6;282;2,1;0,12;-0,52;245;10;10;13,8;10,7;16,2;19,2;19,0;17,8;17,0;16,3;-116,5;22,4;1555
2021-08-06 15:00:00;21,2;99478;67;0,0106;0,0;0,6;270;2,6;-0,02;-0,64;275;2;8;13,8;10,7;16,2;19,2;19,0;18,0;17,0;16,3;-117,8;22,3;1527
2021-08-06 16:00:00;21,3;99515;64;0,0103;0,0;0,7;275;2,9;0,06;-0,7;305;20;19;13,7;10,7;16,1;19,2;18,9;18,1;17,1;16,3;-119,2;22,2;1583
2021-08-06 17:00:00;21,0;99535;66;0,0103;0,0;0,5;244;1,9;-0,18;-0,41;150;1;2;13,7;10,6;16,1;19,2;18,8;18,1;17,2;16,3;-120,2;22,5;1545
2021-08-06 18:00:00;18,5;99572;76;0,0102;0,0;0,3;246;1,1;-0,13;-0,31;18;0;0;13,7;10,6;16,1;19,2;18,6;18,1;17,2;16,3;-119,7;22,4;1594
2021-08-06 19:00:00;17,6;99597;80;0,0101;0,0;0,4;251;1,4;-0,14;-0,41;4;0;0;13,7;10,6;16,1;19,2;18,3;18,0;17,3;16,3;-118,6;22,3;1617
2021-08-06 20:00:00;17,1;99628;83;0,0102;0,0;0,5;248;1,6;-0,2;-0,51;0;0;0;13,7;10,6;16,1;19,2;18,0;17,9;17,3;16,3;-118,1;22,1;1633
2021-08-06 21:00:00;16,3;99660;87;0,0101;0,0;0,5;248;1,6;-0,19;-0,48;0;0;0;13,6;10,6;16,1;19,2;17,8;17,8;17,3;16,3;-117,4;22,1;1585
2021-08-06 22:00:00;15,6;99667;89;0,0099;0,0;0,4;261;1,2;-0,07;-0,42;0;0;0;13,6;10,6;16,1;19,2;17,5;17,6;17,3;16,3;-116,9;22,2;1597
2021-08-06 23:00:00;15,5;99665;91;0,01;0,0;0,4;256;1,2;-0,1;-0,4;0;0;0;13,6;10,6;16,1;19,2;17,3;17,5;17,3;16,3;-116,4;22,0;1613
2021-08-07 00:00:00;15,7;99667;90;0,01;0,0;0,4;260;1,3;-0,08;-0,44;0;0;0;13,6;10,6;16,1;19,2;17,2;17,4;17,2;16,3;-115,8;22,1;1564
2021-08-07 01:00:00;15,7;99635;89;0,01;0,0;0,4;260;1,3;-0,07;-0,4;0;0;0;13,6;10,6;16,1;19,1;17,0;17,3;17,2;16,3;-115,6;21,9;1591
2021-08-07 02:00:00;15,5;99602;90;0,01;0,0;0,4;250;1,4;-0,14;-0,38;0;0;0;13,6;10,6;16,1;19,1;16,9;17,2;17,2;16,3;-115,4;21,8;1550
2021-08-07 03:00:00;15,2;99610;92;0,01;0,09;0,4;255;1,1;-0,09;-0,36;0;0;0;13,6;10,6;16,1;19,1;16,8;17,1;17,1;16,3;-115,2;21,8;1635
2021-08-07 04:00:00;15,0;99610;94;0,01;0,03;0,3;260;1,0;-0,05;-0,3;3;0;0;13,6;10,6;16,1;19,1;16,8;17,0;17,1;16,3;-114,8;21,7;1525
2021-08-07 05:00:00;15,0;99613;95;0,0101;0,11;0,3;264;0,9;-0,03;-0,31;24;0;0;13,6;10,6;16,1;19,1;16,7;16,9;17,1;16,3;-114,4;21,7;1534
2021-08-07 06:00:00;15,6;99575;97;0,0108;0,0;0,3;268;1,0;-0,02;-0,34;140;0;0;13,6;10,6;16,1;19,1;16,7;16,9;17,0;16,3;-114,2;21,4;1611
2021-08-07 07:00:00;17,4;99558;91;0,0113;0,0;0,4;260;1,5;-0,08;-0,44;272;0;0;13,6;10,6;16,1;19,1;16,9;16,9;17,0;16,3;-114,5;21,4;1534
2021-08-07 08:00:00;20,0;99545;79;0,0116;0,0;0,5;236;1,9;-0,26;-0,4;437;0;0;13,6;10,6;16,0;19,1;17,2;16,9;17,0;16,3;-117,7;21,4;1499
2021-08-07 09:00:00;21,0;99518;71;0,0112;0,0;0,5;230;1,9;-0,31;-0,36;459;0;0;13,5;10,5;15,9;19,1;17,7;17,1;17,0;16,3;-121,2;21,7;1518
2021-08-07 10:00:00;22,0;99462;68;0,0112;0,0;0,5;224;2,4;-0,38;-0,37;616;0;0;13,4;10,5;15,9;19,1;18,2;17,3;17,0;16,3;-124,6;21,9;1645
2021-08-07 11:00:00;22,0;99430;64;0,0106;0,0;0,6;223;2,4;-0,4;-0,39;500;0;0;13,3;10,4;15,8;19,1;18,7;17,5;17,0;16,3;-128,1;21,9;1566
2021-08-07 12:00:00;23,0;99353;60;0,0105;0,0;0,5;227;2,3;-0,33;-0,36;574;0;0;13,2;10,4;15,7;19,1;19,1;17,8;17,0;16,3;-131,6;21,9;1673
2021-08-07 13:00:00;23,2;99310;54;0,0097;0,0;0,7;220;2,9;-0,5;-0,46;601;0;0;13,1;10,3;15,6;19,1;19,4;18,0;17,1;16,3;-135,2;21,9;1659
2021-08-07 14:00:00;23,0;99285;52;0,0091;0,0;0,6;230;2,3;-0,36;-0,5;548;0;0;13,0;10,3;15,5;19,1;19,6;18,3;17,2;16,3;-138,6;21,9;1590
2021-08-07 15:00:00;22,8;99278;51;0,0089;0,0;0,5;244;2,2;-0,23;-0,48;319;0;0;12,9;10,2;15,4;19,0;19,6;18,4;17,2;16,3;-141,6;21,9;1642
2021-08-07 16:00:00;22,5;99250;51;0,0088;0,0;0,6;248;2,0;-0,23;-0,56;296;0;0;12,9;10,2;15,3;19,0;19,4;18,5;17,3;16,3;-144,0;22,1;1634
2021-08-07 17:00:00;20,9;99270;55;0,0085;0,0;0,4;270;1,4;-0,03;-0,38;38;0;0;12,8;10,2;15,3;19,0;19,2;18,5;17,4;16,3;-144,6;22,1;1746
2021-08-07 18:00:00;18,2;99305;72;0,0094;2,08;0,5;318;2,1;0,4;-0,14;17;40;8;13,0;10,2;15,3;19,0;18,8;18,4;17,4;16,3;-144,4;22,3;1602
2021-08-07 19:00:00;15,7;99315;89;0,01;0,22;0,3;234;0,7;-0,15;-0,12;5;2;8;13,4;10,2;15,3;19,0;18,4;18,3;17,5;16,3;-142,8;22,6;1633
2021-08-07 20:00:00;15,0;99347;90;0,0097;0,02;0,4;230;0,9;-0,2;-0,28;0;1;11;13,5;10,2;15,3;19,0;18,1;18,2;17,5;16,3;-141,5;22,6;1551
2021-08-07 21:00:00;14,8;99372;90;0,0095;0,0;0,5;247;1,2;-0,18;-0,43;0;0;0;13,5;10,2;15,3;19,0;17,8;18,0;17,5;16,3;-140,6;22,5;1514
2021-08-07 22:00:00;14,3;99413;91;0,0093;0,02;0,4;254;0,9;-0,1;-0,37;0;0;0;13,5;10,2;15,3;19,0;17,5;17,8;17,5;16,4;-139,8;22,3;1580
2021-08-07 23:00:00;14,1;99445;92;0,0093;0,02;0,5;247;1,3;-0,18;-0,43;0;0;0;13,5;10,2;15,3;19,0;17,2;17,6;17,4;16,4;-139,1;22,5;1651
2021-08-08 00:00:00;14,6;99435;92;0,0096;0,0;0,5;248;1,6;-0,19;-0,48;0;0;0;13,5;10,2;15,3;19,0;17,0;17,5;17,4;16,4;-138,6;22,6;1601
2021-08-08 01:00:00;14,9;99420;92;0,0098;0,34;0,7;248;2,4;-0,26;-0,66;0;0;0;13,5;10,2;15,3;19,0;16,9;17,3;17,4;16,4;-138,0;22,8;1574
2021-08-08 02:00:00;14,8;99440;94;0,0099;0,96;0,8;254;2,5;-0,21;-0,76;0;0;0;13,9;10,2;15,3;19,0;16,7;17,2;17,3;16,4;-137,7;23,0;1610
2021-08-08 03:00:00;14,7;99510;94;0,0098;2,93;1,0;262;2,9;-0,12;-0,97;0;0;0;14,5;10,4;15,3;19,0;16,6;17,1;17,3;16,4;-137,4;23,0;1541
2021-08-08 04:00:00;14,4;99597;95;0,0098;0,48;0,9;260;2,8;-0,15;-0,88;1;0;0;15,9;11,1;15,3;19,0;16,3;16,9;17,2;16,4;-135,8;22,9;1524
2021-08-08 05:00:00;14,4;99655;94;0,0097;0,0;0,8;258;2,4;-0,16;-0,77;20;0;0;16,1;11,2;15,3;19,0;16,4;16,8;17,1;16,4;-132,6;22,9;1433
2021-08-08 06:00:00;14,7;99730;94;0,0098;0,0;0,9;256;2,4;-0,2;-0,83;59;0;0;16,1;11,2;15,4;19,0;16,3;16,8;17,1;16,4;-129,8;23,2;1484
2021-08-08 07:00:00;15,2;99815;91;0,0098;0,0;0,9;258;2,8;-0,19;-0,9;94;0;0;16,1;11,2;15,4;19,0;16,3;16,7;17,0;16,4;-127,5;23,4;1519